FW2015 Weather Reports


time (UTC)temp
F
wind
direction
speed
knots
gust
knots
rain 1hr
in
rain 24hr
in
rain mn
in
humidity
%
barometer
mb
20260905091515 74 272 1.7 9.6 0.00 0.00 0.00 82 1008.4
20260905090015 74 195 4.3 9.6 0.00 0.00 0.00 81 1008.6
20260905084512 74 266 0.9 6.1 0.00 0.00 0.00 82 1008.4
20260905083010 74 271 0.9 7.8 0.00 0.00 0.00 85 1008.4
20260905081508 74 271 3.5 8.7 0.00 0.00 0.00 82 1008.6
20260905080005 74 257 3.5 7.0 0.00 0.00 0.00 80 1008.5
20260905074503 75 278 2.6 5.2 0.00 0.00 0.00 79 1008.7
20260905073006 75 266 0.0 3.5 0.00 0.00 0.00 80 1008.8
20260905071502 75 287 0.0 0.9 0.00 0.00 0.00 77 1008.8
20260905064558 74 278 0.0 0.0 0.00 0.00 0.00 81 1009.2
20260905063058 73 236 0.0 0.9 0.00 0.00 0.00 80 1009.2
20260905061557 73 172 0.0 6.1 0.00 0.00 0.00 80 1009.2
20260905060052 76 221 2.6 12.2 0.00 0.00 0.00 81 1009.3
20260905054549 78 231 0.0 5.2 0.00 0.00 0.00 76 1009.2
20260905053046 77 230 0.0 3.5 0.00 0.00 0.00 76 1009.2
20260905051543 77 195 0.0 0.0 0.00 0.00 0.00 81 1009.2
20260905050041 77 266 0.0 0.9 0.00 0.00 0.00 81 1009.4
20260905044539 78 279 0.0 4.3 0.00 0.00 0.00 81 1009.8
20260905043037 78 217 0.9 5.2 0.00 0.00 0.00 81 1009.6
20260905041547 78 266 0.0 4.3 0.00 0.00 0.00 81 1009.7
20260905040032 79 270 0.9 4.3 0.00 0.00 0.00 80 1009.7
20260905034530 79 264 0.9 4.3 0.00 0.00 0.00 82 1009.7
20260905033030 79 275 0.9 4.3 0.00 0.00 0.00 83 1009.8
20260905031534 79 270 0.0 3.5 0.00 0.00 0.00 84 1009.6
20260905030029 79 283 1.7 4.3 0.00 0.00 0.00 85 1009.7
20260905024531 79 271 2.6 5.2 0.00 0.00 0.00 84 1009.7
20260905023028 79 271 1.7 3.5 0.00 0.00 0.00 86 1009.6
20260905021534 79 281 0.0 1.7 0.00 0.00 0.00 85 1009.7
20260905020026 79 273 0.0 0.9 0.00 0.00 0.00 85 1009.8
20260905014526 79 282 0.0 0.9 0.00 0.00 0.00 85 1009.9
20260905013025 79 280 0.0 1.7 0.00 0.00 0.00 85 1009.9
20260905011525 80 277 0.0 2.6 0.00 0.00 0.00 85 1009.9
20260905010024 80 271 0.9 3.5 0.00 0.00 0.00 84 1009.8
20260905004524 80 275 0.0 1.7 0.00 0.00 0.00 84 1009.6
20260905003026 80 274 0.0 0.9 0.00 0.00 0.00 84 1009.4
20260905001522 80 271 0.0 0.9 0.00 0.00 0.00 82 1009.0
20260905000021 81 278 0.0 0.9 0.00 0.00 0.00 83 1009.2
20260904234521 81 276 0.0 1.7 0.00 0.00 0.00 82 1009.3
20260904233019 81 269 0.0 3.5 0.00 0.00 0.00 81 1009.4
20260904231519 82 272 0.9 3.5 0.00 0.00 0.00 82 1009.5
20260904230020 82 263 0.0 2.6 0.00 0.00 0.00 79 1009.5
20260904224518 82 281 1.7 5.2 0.00 0.00 0.00 78 1009.4
20260904223018 83 285 3.5 6.1 0.00 0.00 0.00 76 1009.4
20260904221517 82 278 0.9 6.1 0.00 0.00 0.00 78 1009.3
20260904220017 82 61 0.0 2.6 0.00 0.00 0.00 83 1009.4
20260904214515 82 37 0.0 2.6 0.00 0.00 0.00 83 1009.5
20260904213016 81 56 0.9 5.2 0.00 0.00 0.00 87 1009.4
20260904211515 80 62 2.6 5.2 0.00 0.00 0.00 88 1009.3
20260904210016 80 58 0.0 5.2 0.00 0.00 0.00 87 1009.5
20260904204516 81 86 0.0 3.5 0.00 0.00 0.00 85 1009.7
20260904203015 83 91 0.0 3.5 0.00 0.00 0.00 81 1009.6
20260904201510 83 76 0.0 3.5 0.00 0.00 0.00 82 1009.8
20260904200009 82 99 0.0 5.2 0.00 0.00 0.00 82 1010.0
20260904194508 80 49 0.0 7.0 0.00 0.00 0.00 84 1010.3
20260904193010 81 39 2.6 7.0 0.00 0.00 0.00 82 1010.5
20260904191507 80 57 0.9 7.8 0.00 0.00 0.00 84 1010.5
20260904190005 82 16 1.7 7.0 0.00 0.00 0.00 82 1010.5
20260904184510 80 75 0.9 5.2 0.00 0.00 0.00 84 1010.6
20260904183004 80 72 0.9 5.2 0.00 0.00 0.00 83 1010.7
20260904181512 81 61 0.9 4.3 0.00 0.00 0.00 83 1010.8
20260904180002 84 80 0.0 4.3 0.00 0.00 0.00 72 1010.8
20260904174502 84 98 0.0 2.6 0.00 0.00 0.00 77 1010.7
20260904173000 83 110 0.0 2.6 0.00 0.00 0.00 77 1010.9
20260904171620 84 87 0.0 4.3 0.00 0.00 0.00 77 1010.7
20260904170059 85 130 0.0 4.3 0.00 0.00 0.00 73 1010.5
20260904164616 87 124 3.5 6.1 0.00 0.00 0.00 68 1010.6
20260904163055 90 131 0.9 6.1 0.00 0.00 0.00 60 1010.7
20260904161559 89 131 0.0 6.1 0.00 0.00 0.00 62 1010.8
20260904160049 86 131 0.9 9.6 0.00 0.00 0.00 68 1010.9
20260904154551 85 131 5.2 10.4 0.00 0.00 0.00 66 1011.0
20260904153054 84 131 2.6 12.2 0.00 0.00 0.00 71 1011.0
20260904151546 83 130 3.5 9.6 0.00 0.00 0.00 73 1010.9
20260904150041 83 130 1.7 10.4 0.00 0.00 0.00 74 1010.9
20260904144538 82 130 3.5 9.6 0.00 0.00 0.00 78 1010.9
20260904143035 81 245 6.1 11.3 0.00 0.00 0.00 77 1010.8
20260904141533 81 199 5.2 13.9 0.00 0.00 0.00 82 1011.0
20260904140035 80 264 9.6 15.6 0.00 0.00 0.00 82 1010.9
20260904134528 80 266 6.1 11.3 0.00 0.00 0.00 84 1010.8
20260904133034 79 250 7.0 12.2 0.00 0.00 0.00 84 1010.7
20260904131525 78 252 8.7 12.2 0.00 0.00 0.00 85 1010.7
20260904130023 78 266 7.0 11.3 0.00 0.00 0.00 86 1010.7
20260904124523 78 267 7.0 13.0 0.00 0.00 0.00 87 1010.8
20260904123022 77 280 7.0 13.9 0.00 0.00 0.00 88 1010.6
20260904121527 77 262 10.4 13.9 0.00 0.00 0.00 88 1010.8
20260904120027 76 268 7.8 13.9 0.00 0.00 0.00 90 1010.6
20260904114523 76 274 6.1 13.0 0.00 0.00 0.00 91 1010.5
20260904113021 75 290 7.8 13.9 0.00 0.00 0.00 91 1010.4
20260904111519 76 278 5.2 12.2 0.00 0.00 0.00 92 1010.2
20260904110016 76 269 6.1 12.2 0.00 0.00 0.00 91 1010.0
20260904104517 76 267 3.5 10.4 0.00 0.00 0.00 92 1010.0
20260904103015 76 310 4.3 10.4 0.00 0.00 0.00 93 1010.2
20260904101513 76 274 3.5 7.8 0.00 0.00 0.00 94 1010.2
20260904100013 76 332 2.6 9.6 0.00 0.00 0.00 94 1009.9
20260904094509 76 326 2.6 9.6 0.00 0.00 0.00 93 1009.9
20260904093009 77 271 4.3 12.2 0.00 0.00 0.00 93 1009.9